Regional Weather Roundup
Issued by NWS

Home | Current Version | Previous Version | Text Only | Print | Product List | Glossary Off
Versions: 1 2 3 4 5 6 7 8 9 10 11 12 13 14 15 16 17 18 19 20 21 22 23 24 25 26 27 28 29 30 31 32 33 34 35 36 37 38 39 40 41 42 43 44 45 46 47 48 49 50

876
ASUS43 KIND 232359
RWRIN

WEATHER ROUNDUP FOR INDIANA
NATIONAL WEATHER SERVICE INDIANAPOLIS IN
700 PM EST MON JAN 23 2017

NOTE: "FAIR" INDICATES FEW OR NO CLOUDS BELOW 12,000 FEET WITH NO
SIGNIFICANT WEATHER AND/OR OBSTRUCTIONS TO VISIBILITY.

* - STATION DOES NOT REPORT WEATHER SUCH AS PRECIPITATION OR FOG.

+ - STATION NOT QUALITY CONTROLLED BY THE NATIONAL WEATHER SERVICE.
    USE DATA WITH CAUTION...ESPECIALLY DEWPOINT AND RELATIVE
    HUMIDITY OBSERVATIONS.

INZ001>003-010>013-019-020-240100-
NORTHWEST INDIANA

CITY           SKY/WX    TMP DP  RH WIND       PRES   REMARKS
GARY /AIRPORT/ CLOUDY    39  36  87 NW8       29.77R
KNOX *+        CLOUDY    37  27  65 NW7       29.75R
MONTICELLO +   CLOUDY    38  36  93 NW13G20   29.74R FOG
6HR MIN TEMP:  38; 6HR MAX TEMP:  41;


$$

LMZ046-743>745-240100-
SOUTHERN LAKE MICHIGAN

STATION/POSITION TIME  TEMP    WIND        PRES    WAVE
                       AIR SEA DIR/SP/G            HT
                 (UTC) (F)     (DEG/KT/KT) (MB)    (FT)
BURNS HARBOR     2340   36     310/  4/  5 1008.8R
MICHIGAN CITY    2330   36     310/ 10/ 11   N/A

$$

INZ004-005-014>016-021>024-240100-
NORTH CENTRAL INDIANA

CITY           SKY/WX    TMP DP  RH WIND       PRES   REMARKS
ELKHART        CLOUDY    39  37  93 N10       29.72R
GOSHEN         CLOUDY    40  37  89 NW10      29.70R
6HR MIN TEMP:  40; 6HR MAX TEMP:  42;

SOUTH BEND     CLOUDY    38  37  97 NW13      29.73R
6HR MIN TEMP:  38; 6HR MAX TEMP:  39;


$$

INZ006>009-017-018-025>027-240100-
NORTHEAST INDIANA

CITY           SKY/WX    TMP DP  RH WIND       PRES   REMARKS
ANGOLA *+      CLOUDY    41  30  65 N6        29.67S
FORT WAYNE     LGT RAIN  43  41  93 N7        29.69R
6HR MIN TEMP:  43; 6HR MAX TEMP:  46; 6HR PCP:  0.16;

KENDALLVILLE + RAIN      41  41 100 N6        29.68R

$$

INZ028-029-035-036-043>045-051>053-240100-
WEST CENTRAL INDIANA

CITY           SKY/WX    TMP DP  RH WIND       PRES   REMARKS
CRAWFORDSVL +  CLOUDY    37  37 100 NW10      29.74S FOG
6HR MIN TEMP:  37; 6HR MAX TEMP:  40;

LAFAYETTE      CLOUDY    38  37  97 NW12      29.75R FOG
6HR MIN TEMP:  38; 6HR MAX TEMP:  42;

TERRE HAUTE    CLOUDY    40  35  83 NW8       29.76R
6HR MIN TEMP:  40; 6HR MAX TEMP:  42;


$$

INZ030>032-037>040-046>048-054>057-064-065-240100-
CENTRAL INDIANA

CITY           SKY/WX    TMP DP  RH WIND       PRES   REMARKS
COLUMBUS       CLOUDY    41  41 100 NW14G20   29.71R
INDIANAPOLIS   DRIZZLE   41  39  93 NW10      29.72R FOG
6HR MIN TEMP:  40; 6HR MAX TEMP:  43; 6HR PCP: TRACE;

-EAGLE CREEK   CLOUDY    41  38  89 NW12      29.72R
6HR MIN TEMP:  41; 6HR MAX TEMP:  43;

KOKOMO +       CLOUDY    40  38  93 NW14      29.73R
6HR MIN TEMP:  40; 6HR MAX TEMP:  42;

MT COMFORT *+  CLOUDY    39  39 100 NW13G18   29.71R
SHELBYVILLE    CLOUDY    43  39  86 NW16      29.70R
6HR MIN TEMP:  43; 6HR MAX TEMP:  46;


$$

INZ033-034-041-042-049-050-058-059-240100-
EAST CENTRAL INDIANA

CITY           SKY/WX    TMP DP  RH WIND       PRES   REMARKS
MUNCIE         LGT RAIN  44  42  93 N10       29.67R FOG
6HR MIN TEMP:  44; 6HR MAX TEMP:  47; 6HR PCP:  0.01;


$$

INZ060-061-067>069-081>083-085>088-240100-
SOUTHWEST INDIANA

CITY           SKY/WX    TMP DP  RH WIND       PRES   REMARKS
EVANSVILLE     CLOUDY    42  35  76 NW12G22   29.79R
6HR MIN TEMP:  42; 6HR MAX TEMP:  45;

HUNTINGBURG *+ CLOUDY    41  36  82 NW13G18   29.77R
6HR MIN TEMP:  41; 6HR MAX TEMP:  43;


$$

INZ062-063-066-070>080-084-089>092-240100-
SOUTH CENTRAL AND SOUTHEAST INDIANA

CITY           SKY/WX    TMP DP  RH WIND       PRES   REMARKS
BLOOMINGTON    CLOUDY    41  36  82 NW8       29.72R
6HR MIN TEMP:  41; 6HR MAX TEMP:  43;

MADISON *+     CLOUDY    43  41  93 NW9G23    29.70R
SEYMOUR +      CLOUDY    45  41  87 NW8       29.70R

$$





USA.gov is the U.S. government's official web portal to all federal, state and local government web resources and services.